Regional Weather Roundup
Issued by NWS

Home | Current Version | Previous Version | Text Only | Print | Product List | Glossary Off
Versions: 1 2 3 4 5 6 7 8 9 10 11 12 13 14 15 16 17 18 19 20 21 22 23 24 25 26 27 28 29 30 31 32 33 34 35 36 37 38 39 40 41 42 43 44 45 46 47 48 49 50

171
ASUS43 KMKX 250511
RWRWI

WISCONSIN REGIONAL WEATHER ROUNDUP
NATIONAL WEATHER SERVICE MILWAUKEE/SULLIVAN WI
1200 AM CDT THU AUG 25 2016

NOTE: "FAIR" INDICATES FEW OR NO CLOUDS BELOW 12,000 FEET WITH NO
SIGNIFICANT WEATHER AND/OR OBSTRUCTIONS TO VISIBILITY.

WIZ001-002-006>008-014>016-023>028-250600-
NORTHWEST WISCONSIN

CITY           SKY/WX    TMP DP  RH WIND       PRES   REMARKS
SUPERIOR ARPT  MOCLDY    58  56  91 CALM      29.93F
ASHLAND        CLOUDY    61  57  87 SW7       29.93S
HAYWARD        CLOUDY    60  57  89 CALM      29.96S
SIREN          CLOUDY    63  57  80 W3        29.97S
CUMBERLAND     CLOUDY    61  55  82 W5        29.98S
RICE LAKE      CLOUDY    61  56  85 W5        29.99S
CHETEK         NOT AVBL
LADYSMITH      CLOUDY    64  57  78 NW6       29.99R
EAU CLAIRE     CLOUDY    65  58  78 SW5       29.97R
MENOMONIE      CLOUDY    66  58  76 W6        29.98S
NEW RICHMOND   CLOUDY    64  57  79 W8        30.00R
OSCEOLA        CLOUDY    64  58  83 W6        30.01S
$$

WIZ003>005-009-010-017-018-250600-
NORTH CENTRAL WISCONSIN

CITY           SKY/WX    TMP DP  RH WIND       PRES   REMARKS
MANITOWISH WTR NOT AVBL
ARBOR VITAE    CLOUDY    64  59  85 CALM      29.95F
WOODRUFF       CLOUDY    64  59  85 CALM      29.95F
RHINELANDER    CLOUDY    61  59  93 W6        29.96S
EAGLE RIVER    MOCLDY    63  60  88 W6        29.94S
LAND O LAKES   PTCLDY    62  60  94 W3        29.95S
PHILLIPS       PTCLDY    61  58  91 SW3       29.96F
TOMAHAWK       CLOUDY    60  57  90 CALM      29.97S
MEDFORD        CLOUDY    62  62  97 CALM      29.98R
MERRILL        CLOUDY    64  62  94 CALM      29.97S
$$

WIZ029-030-035-036-043>047-250600-
CENTRAL WISCONSIN

CITY           SKY/WX    TMP DP  RH WIND       PRES   REMARKS
WAUSAU         CLOUDY    66  63  90 W6        29.95R
MOSINEE        CLOUDY    64  63  94 W6        29.99R
MARSHFIELD     CLOUDY    65  61  87 W5        29.98R
STEVENS POINT  CLOUDY    67  64  90 W3        29.98R
WAUPACA        CLOUDY    70  69  98 W3        29.96S
WAUTOMA        CLOUDY    67  66  97 CALM      29.96S
WISC RAPIDS    CLOUDY    68  66  93 NW5       29.99R
CAMP DOUGLAS   MOCLDY    64  63  94 W8        29.97S
$$

WIZ011>013-019>022-031-037>040-048>050-250600-
NORTHEAST WISCONSIN

CITY           SKY/WX    TMP DP  RH WIND       PRES   REMARKS
ANTIGO         PTCLDY    63  63  98 CALM      29.97R
SHAWANO        MOCLDY    69  66  91 W3        29.94S
OCONTO         NOT AVBL
STURGEON BAY   PTCLDY    70  67  90 W6        29.92R
GREEN BAY      CLOUDY    66  66 100 W7        29.93S
MANITOWOC      PTCLDY    71  69  93 MISG      29.94R
APPLETON       MOCLDY    68  68 100 W6        29.94S
CLINTONVILLE   MOCLDY    68  64  88 W6        29.94S
OSHKOSH        PTCLDY    70  67  90 NW7       29.95R
$$

WIZ032>034-041-042-053>061-250600-
SOUTHWEST WISCONSIN

CITY           SKY/WX    TMP DP  RH WIND       PRES   REMARKS
LA CROSSE      NOT AVBL
SPARTA         CLOUDY    65  64  97 CALM      29.99S
VIROQUA        CLOUDY    67  63  87 NW6       30.00F
BOSCOBEL       CLOUDY    71  69  93 CALM      29.97F
PRAIRIE DU CHI CLOUDY    72  64  76 NW6       29.97S
PLATTEVILLE    PTCLDY    73  73 100 N6        29.97F
$$

WIZ056-057-062-063-064-067-068-250600-
SOUTH CENTRAL WISCONSIN

CITY           SKY/WX    TMP DP  RH WIND       PRES   REMARKS
REEDSBURG      NOT AVBL
BARABOO/DELLS  CLOUDY    68  66  93 CALM      29.96F
LONE ROCK      CLOUDY    71  68  90 CALM      29.97F
MINERAL POINT  CLOUDY    73  72  94 N7        29.98S
MADISON        CLOUDY    73  70  90 NW3       29.95F
MIDDLETON      CLOUDY    72  72  98 CALM      29.97S
WATERTOWN      CLOUDY    73  73 100 CALM      29.95S
MONROE         CLOUDY    73  70  88 W8        29.96S
JANESVILLE     CLOUDY    75  73  94 CALM      29.95R
$$

WIZ051-052-058>065-066-070>072-250600-
SOUTHEAST WISCONSIN

CITY           SKY/WX    TMP DP  RH WIND       PRES   REMARKS
MILWAUKEE      NOT AVBL
WAUKESHA       PTCLDY    72  70  94 CALM      29.96S
MILWAUKEE/TIMM CLOUDY    75  68  78 CALM      29.95S
RACINE         CLOUDY    76  71  85 SW5       29.95S
BURLINGTON     CLOUDY    71  70  94 SW6       29.95R
KENOSHA        MOCLDY    76  71  85 SW8       29.95S
FOND DU LAC    PTCLDY    70  68  93 W5        29.96R
SHEBOYGAN      CLOUDY    68  66  93 SW5       29.94S
WEST BEND      CLOUDY    70  68  94 CALM      29.96R FOG
JUNEAU         CLOUDY    71  70  95 NW6       29.96F
$$

LSZ147-162-250600-
LAKE SUPERIOR

STATION/POSITION TIME  TEMP    WIND        PRES    WAVE
                       AIR SEA DIR/SP/G            HT/PER
                 (UTC) (F)     (DEG/KT/KT) (MB)    (FT/S)
W MID LAKE BUOY  0450   70 69  270/ 14/ 16 1010.2R   2/ 4
DEVILS ISLAND    0400   69     250/ 13/ 15 1012.0R
PORT WING        0400   69     210/  5/  6 1013.2R
SAXON HARBOR     0440   68     200/  7/  9 1012.9R
$$

LMZ867-665-643>646-250600-
LAKE MICHIGAN

STATION/POSITION TIME  TEMP    WIND        PRES    WAVE
                       AIR SEA DIR/SP/G            HT/PER
                 (UTC) (F)     (DEG/KT/KT) (MB)    (FT/S)
CHAMBERS ISLAND  0400   70     210/  4/  7 1012.5S
S GREEN BAY BUOY 0400   72 73  260/  8/ 10 1012.6F
N MID LAKE BUOY  0450   71 70  240/ 12/ 12 1010.9F   4/ 7
NORTHPORT PIER   0400   72     270/  3/  6 1011.9F
SISTER BAY       0437   73     260/  9/ 10   N/A
KEWAUNEE LAKESHO 0400   71     300/  3/  5 1012.6F
SHEBOYGAN LAKESH 0500   72     260/  5/  6 1013.0F
PORT WASHINGTON  0400   73     300/  1/  3 1014.2S
ATWATER BUOY     0500   61 46   30/  2/  4   N/A
MILWAUKEE LAKESH 0410   71      90/  1/  1   N/A
S MID LAKE BUOY  0450   76 75  190/  8/ 10 1012.9F   1
KENOSHA   LAKESH 0500   78     250/  6/  9 1013.5S
$$

TC  - TEMPERATURE IN CELSIUS
VSB - VISIBILITY IN STATUTE MILES
WCI - WIND CHILL INDEX
HX  - HEAT INDEX





USA.gov is the U.S. government's official web portal to all federal, state and local government web resources and services.